Dewpoint
25 27 32 36 52 60 58 55 55 55 53 51 49 49 48 48 47 47 47 45 44 42 43 42 42 41 41 42 40 38 39 38
28 28 31 37 48 60 57 55 55 54 52 49 47 46 46 46 46 47 46 45 43 43 43 42 41 43 43 44 42 39 37 39
28 29 31 40 51 59 57 54 54 53 51 49 47 47 46 45 47 46 45 44 43 43 42 41 43 42 42 42 41 37 37 39
33 34 36 45 51 58 57 54 53 52 51 49 47 46 45 45 46 45 44 44 42 42 42 42 42 43 42 41 40 40 38 38
34 36 36 49 52 58 56 54 52 52 51 48 46 44 43 43 45 44 43 43 41 42 42 42 42 41 41 40 39 39 40 35
36 37 39 40 55 56 56 54 52 52 51 48 46 44 43 44 44 44 42 42 41 41 42 42 42 42 40 40 38 36 35 33
36 36 39 42 55 56 56 54 52 51 51 50 46 45 44 43 43 42 41 40 41 41 42 42 40 39 37 37 37 36 35 33
35 36 38 42 53 55 56 54 52 51 51 49 47 46 45 43 43 42 40 39 39 41 41 40 38 37 36 36 36 36 36 34
36 38 39 39 45 51 52 52 51 50 50 48 48 48 46 44 42 41 39 38 39 40 38 36 35 35 33 34 35 34 35 34
35 37 39 39 41 44 50 49 49 50 49 49 49 47 45 43 42 40 39 39 39 37 36 34 33 33 32 32 32 32 32 32
35 36 38 39 41 46 49 49 46 47 47 46 45 44 43 41 40 38 37 37 37 37 36 35 34 32 30 31 30 30 29 30
34 36 38 40 42 42 42 42 43 43 43 43 42 41 40 39 38 37 38 37 36 35 33 31 31 29 28 28 28 27 26 25
35 36 37 38 40 40 41 41 40 40 40 41 41 39 39 38 37 37 36 34 33 31 30 29 27 27 28 27 25 26 25 23
34 36 37 38 38 39 40 40 39 39 39 39 39 39 37 37 37 36 35 33 32 31 30 29 29 29 29 28 26 25 23 22
33 39 38 39 38 38 39 39 39 39 38 37 37 37 36 36 36 35 34 34 33 33 32 31 29 26 25 23 23 22 21 21
25 38 40 39 39 38 37 37 38 38 37 37 36 36 36 36 36 35 35 35 34 34 32 27 21 21 20 21 21 20 18 19
18 26 41 39 39 38 37 37 37 38 37 37 37 35 34 33 33 33 33 33 33 33 27 25 22 20 24 22 20 18 17 16
35 32 36 40 39 38 38 38 38 38 37 35 33 33 32 32 33 33 33 32 32 29 27 22 23 22 22 20 19 15 14 12
33 29 27 39 41 39 39 38 38 36 35 34 33 33 32 32 33 32 32 31 30 30 27 26 22 16 18 17 17 16 12 12
Wind_Speed
22 19 18 18 26 34 35 29 27 24 16 17 15 17 14 15 14 13 13 12 10 11 13 10 7 10 7 3 8 2 3 4
20 19 20 21 13 30 35 33 29 26 19 20 18 20 15 15 15 17 13 11 10 12 12 9 5 8 9 5 4 6 5 4
24 24 23 23 22 27 28 28 28 27 22 21 16 18 14 13 14 14 11 11 10 10 14 10 12 11 7 2 0 6 6 5
9 14 20 24 25 30 32 28 25 24 20 18 16 15 15 12 17 14 11 10 9 11 9 10 10 12 9 5 4 5 7 4
6 12 14 7 18 22 30 31 30 26 22 21 21 20 20 16 15 13 13 12 11 11 12 10 8 12 9 7 8 6 7 10
7 9 14 18 13 14 26 26 27 28 27 21 22 19 16 16 17 19 14 12 12 12 12 12 12 13 14 12 9 11 12 12
4 8 10 14 5 9 18 19 22 23 25 20 25 21 19 20 19 19 15 13 12 12 13 13 15 14 14 12 12 12 11 11
4 7 7 10 19 14 9 13 16 19 23 19 17 22 20 24 25 19 17 15 13 12 13 14 14 13 12 13 12 12 11 9
6 9 5 4 6 10 8 10 11 14 16 16 12 13 12 20 23 20 17 15 14 13 15 15 15 13 13 12 14 11 12 12
6 8 7 5 5 2 6 7 9 11 13 14 12 10 14 20 19 21 19 19 17 16 16 14 12 11 13 14 15 12 11 12
6 6 6 7 8 19 10 8 11 12 15 17 18 18 18 18 21 22 22 19 18 16 17 15 11 10 9 13 12 12 12 10
9 9 6 11 17 15 18 18 15 15 14 16 20 21 22 21 23 22 21 19 17 16 15 15 13 12 8 11 12 11 12 12
7 7 7 8 11 10 12 14 14 13 14 15 16 19 21 22 23 22 21 18 16 16 16 17 14 14 12 12 8 9 11 10
8 9 6 9 7 10 9 11 14 14 13 16 16 16 19 21 22 21 20 19 17 15 13 15 16 12 12 9 10 9 10 9
21 15 12 12 7 10 11 12 12 14 16 15 16 17 18 20 20 20 19 17 16 15 14 15 15 15 14 13 11 12 10 10
21 20 18 16 14 10 7 11 13 14 15 16 17 16 17 19 18 16 16 16 15 15 15 14 14 12 10 13 13 12 13 12
13 4 18 16 18 19 15 15 15 17 15 16 16 17 16 16 17 16 15 16 15 15 15 14 13 11 7 8 11 13 13 13
12 9 11 12 19 24 22 22 19 16 18 16 18 19 19 18 17 18 17 17 15 15 15 14 12 7 8 9 4 12 11 11
12 7 2 16 16 20 20 23 23 20 19 20 20 20 21 20 19 19 18 17 16 16 16 17 13 9 8 6 3 11 13 10
Wind_Direction
238 231 230 242 188 163 166 170 170 173 193 175 181 163 174 156 159 159 166 166 175 138 127 149 172 140 155 75 139 27 84 147
253 237 223 209 208 160 165 167 169 168 186 184 179 175 171 157 161 148 170 157 157 136 134 166 154 109 109 149 137 143 64 8
234 240 219 198 174 161 166 169 167 173 180 187 180 173 163 158 130 150 154 160 155 144 147 152 118 110 117 99 95 125 91 31
342 348 326 180 171 164 165 167 171 177 178 181 167 176 160 150 146 149 149 152 163 127 122 119 120 136 124 111 38 41 152 78
360 348 335 192 173 159 167 168 171 177 185 186 183 181 177 163 154 150 151 156 136 127 115 120 116 101 109 94 36 31 7 140
17 7 342 326 169 152 168 172 172 176 185 186 183 182 174 157 156 149 148 143 131 129 126 120 111 96 81 79 65 52 35 72
35 33 2 335 111 145 149 166 168 175 186 192 177 179 169 158 154 149 148 137 134 133 126 112 102 103 106 101 87 75 71 77
83 68 25 11 53 70 127 157 171 167 179 188 179 171 169 162 148 151 150 148 141 135 122 113 106 105 101 99 94 82 80 76
112 96 72 29 65 90 86 134 152 152 159 161 153 151 159 150 152 154 152 151 134 106 96 101 102 105 99 92 87 83 78 75
67 81 67 50 38 78 133 97 136 149 138 127 140 128 140 149 136 133 112 111 109 109 100 97 98 97 100 102 99 96 93 85
106 68 73 78 68 51 55 104 105 108 117 117 112 109 104 108 106 109 112 113 110 115 123 120 109 99 104 94 112 105 103 98
97 85 75 75 70 70 75 73 78 81 86 106 113 116 115 114 113 117 116 121 130 140 127 118 127 118 99 92 91 106 106 109
62 85 91 87 95 89 91 92 88 91 100 105 113 121 122 121 124 126 128 133 129 128 127 131 121 111 110 117 120 118 114 125
148 125 116 113 125 118 121 126 117 116 117 121 123 125 126 126 127 129 129 129 126 129 131 114 108 103 106 113 119 123 121 115
292 141 142 128 142 142 151 136 135 134 133 134 128 131 130 128 128 128 131 135 138 141 135 134 132 148 154 149 134 119 117 96
214 168 145 156 151 155 160 144 147 151 149 145 139 134 131 130 130 135 140 145 139 133 133 140 137 135 136 137 145 137 125 127
283 169 146 166 159 162 165 151 167 161 159 152 141 135 134 133 133 137 141 142 142 144 141 140 139 113 105 79 128 149 146 145
35 359 154 175 175 169 169 164 161 166 153 146 148 147 148 150 149 150 145 144 140 140 143 127 115 141 150 105 104 152 150 144
151 220 44 179 183 168 163 162 154 158 165 165 163 161 158 157 153 149 147 147 149 158 145 130 131 150 144 126 67 127 121 111